Dewpoint
2 1 2 2 1 -0 -2 -6 -9 -11 -12 -12 -13 -12 -13 -12 -12 -11 -9 -8 -8 -9 -9 -10 -11 -11 -11 -10 -11 -12 -13 -14 -15 -16 -17 -17 -18 -18 -19 -19 -20 -20 -20 -20 -20 -20 -19 -19 -18 -18 -19 -17
-0 -1 -1 -0 -3 -7 -10 -12 -13 -12 -13 -13 -13 -13 -13 -12 -12 -12 -10 -10 -9 -9 -10 -10 -11 -11 -11 -9 -8 -11 -13 -14 -15 -15 -17 -17 -18 -19 -19 -20 -20 -20 -21 -21 -20 -21 -20 -20 -21 -20 -20 -19
-4 -6 -8 -9 -10 -13 -14 -14 -13 -13 -13 -13 -13 -13 -13 -13 -12 -12 -12 -12 -12 -12 -12 -11 -11 -11 -11 -10 -8 -10 -12 -13 -15 -15 -17 -17 -18 -19 -19 -20 -20 -20 -20 -21 -21 -21 -21 -21 -22 -21 -22 -22
-11 -10 -13 -14 -12 -12 -12 -12 -13 -12 -12 -13 -13 -13 -12 -12 -12 -12 -12 -12 -12 -12 -12 -12 -12 -11 -10 -10 -10 -11 -12 -13 -14 -16 -17 -17 -18 -18 -19 -20 -20 -20 -20 -21 -21 -21 -22 -22 -23 -23 -24 -24
-14 -12 -11 -10 -8 -8 -9 -9 -9 -10 -10 -11 -11 -11 -12 -11 -11 -12 -12 -12 -12 -12 -12 -12 -11 -11 -10 -10 -10 -11 -11 -12 -14 -15 -17 -17 -18 -18 -19 -19 -20 -21 -21 -22 -23 -23 -23 -25 -25 -25 -26 -26
-9 -10 -9 -8 -7 -7 -7 -8 -8 -8 -8 -9 -9 -10 -10 -10 -10 -10 -11 -11 -11 -11 -11 -11 -10 -10 -10 -10 -10 -11 -12 -12 -14 -15 -17 -18 -18 -18 -18 -18 -19 -21 -22 -23 -23 -24 -24 -25 -26 -26 -27 -27
-5 -7 -8 -8 -8 -7 -7 -7 -7 -7 -7 -7 -7 -7 -8 -9 -9 -9 -10 -10 -9 -9 -9 -9 -9 -9 -9 -10 -10 -11 -12 -13 -15 -16 -17 -18 -18 -19 -18 -18 -18 -19 -21 -22 -22 -23 -24 -24 -25 -26 -27 -27
-4 -5 -6 -7 -8 -8 -8 -7 -7 -7 -6 -6 -6 -6 -7 -8 -8 -9 -9 -9 -9 -8 -8 -8 -8 -8 -8 -9 -11 -12 -14 -16 -17 -18 -18 -18 -18 -19 -19 -18 -17 -18 -19 -20 -21 -20 -21 -22 -23 -24 -25 -26
-4 -4 -4 -5 -7 -7 -8 -8 -7 -7 -7 -6 -6 -6 -7 -8 -8 -8 -8 -8 -8 -8 -8 -8 -8 -9 -10 -11 -13 -15 -17 -18 -18 -18 -18 -19 -19 -19 -19 -19 -18 -18 -19 -19 -20 -20 -20 -20 -21 -22 -23 -24
-5 -5 -5 -6 -6 -7 -7 -7 -7 -7 -7 -6 -6 -7 -8 -8 -9 -9 -9 -9 -9 -9 -9 -10 -10 -12 -13 -15 -16 -16 -16 -17 -17 -17 -17 -17 -17 -17 -17 -18 -18 -18 -18 -19 -19 -19 -19 -19 -20 -20 -21 -22
-6 -7 -7 -7 -6 -6 -7 -7 -7 -7 -7 -7 -7 -8 -8 -9 -10 -11 -12 -12 -12 -12 -13 -13 -14 -15 -15 -15 -15 -15 -15 -15 -16 -17 -17 -17 -17 -17 -17 -16 -17 -17 -18 -18 -18 -18 -19 -19 -19 -19 -20 -20
-7 -7 -7 -7 -7 -7 -7 -7 -7 -8 -7 -8 -8 -8 -9 -10 -11 -12 -13 -14 -14 -14 -14 -14 -14 -14 -14 -14 -14 -14 -14 -15 -15 -16 -17 -18 -18 -18 -17 -18 -17 -17 -18 -18 -18 -19 -19 -19 -19 -20 -20 -20
-7 -7 -7 -8 -8 -8 -8 -9 -9 -9 -8 -9 -9 -9 -10 -11 -12 -13 -13 -13 -13 -13 -12 -12 -12 -12 -12 -12 -13 -13 -13 -14 -14 -15 -15 -16 -17 -18 -19 -19 -19 -19 -19 -19 -19 -19 -20 -20 -20 -20 -20 -20
-7 -7 -8 -8 -9 -9 -9 -9 -9 -9 -10 -10 -11 -12 -12 -13 -13 -12 -12 -11 -11 -11 -11 -11 -11 -11 -12 -12 -12 -12 -13 -13 -13 -14 -14 -15 -15 -16 -17 -18 -19 -19 -20 -20 -20 -20 -20 -21 -21 -21 -21 -22
-8 -8 -8 -9 -9 -9 -10 -10 -10 -11 -11 -12 -12 -13 -12 -12 -11 -11 -10 -10 -10 -10 -10 -10 -10 -11 -11 -11 -11 -11 -12 -12 -13 -13 -13 -13 -14 -14 -15 -16 -17 -18 -19 -19 -20 -20 -21 -21 -21 -22 -22 -22
-9 -9 -9 -10 -10 -10 -11 -11 -12 -12 -12 -12 -12 -12 -11 -10 -10 -9 -9 -9 -9 -9 -9 -9 -10 -10 -10 -10 -10 -11 -11 -11 -12 -12 -13 -13 -13 -14 -14 -15 -16 -17 -18 -18 -19 -20 -21 -21 -22 -22 -22 -23
-10 -10 -11 -11 -12 -12 -12 -13 -13 -12 -12 -11 -11 -10 -9 -9 -8 -8 -8 -8 -8 -8 -8 -8 -9 -9 -9 -9 -9 -10 -10 -10 -11 -11 -12 -12 -13 -13 -14 -14 -15 -15 -16 -17 -18 -18 -20 -20 -21 -22 -21 -22
-11 -12 -12 -12 -13 -12 -12 -12 -11 -10 -9 -9 -9 -8 -8 -8 -8 -8 -8 -8 -8 -8 -8 -8 -8 -8 -9 -9 -9 -9 -10 -10 -10 -10 -11 -11 -12 -12 -13 -13 -13 -14 -14 -15 -15 -16 -17 -18 -19 -19 -20 -20
-12 -12 -12 -12 -12 -11 -10 -10 -9 -8 -8 -8 -8 -7 -7 -7 -7 -8 -8 -8 -8 -8 -8 -8 -8 -9 -9 -10 -10 -10 -11 -11 -11 -11 -11 -11 -11 -11 -12 -12 -13 -13 -13 -13 -14 -14 -15 -16 -17 -17 -17 -18
-10 -10 -9 -9 -9 -9 -8 -8 -8 -8 -8 -8 -8 -8 -8 -8 -8 -8 -8 -9 -9 -9 -9 -10 -10 -10 -11 -11 -12 -12 -13 -13 -12 -12 -12 -12 -13 -12 -12 -12 -12 -13 -13 -13 -13 -13 -14 -14 -15 -15 -16 -16
-9 -9 -9 -10 -10 -10 -10 -10 -10 -9 -9 -9 -9 -9 -9 -9 -10 -10 -10 -11 -11 -11 -11 -12 -12 -12 -13 -13 -14 -14 -14 -15 -15 -14 -14 -13 -14 -14 -14 -14 -14 -14 -13 -13 -13 -13 -13 -14 -14 -15 -15 -15
-12 -13 -14 -15 -16 -15 -15 -15 -14 -14 -13 -13 -13 -13 -13 -12 -13 -13 -13 -13 -13 -14 -14 -14 -14 -14 -15 -15 -15 -16 -16 -17 -17 -17 -17 -16 -16 -17 -17 -17 -17 -16 -16 -15 -14 -13 -13 -14 -14 -14 -14 -15
-18 -18 -19 -19 -20 -20 -20 -19 -18 -17 -16 -16 -16 -16 -16 -16 -16 -17 -17 -17 -17 -17 -17 -17 -17 -18 -18 -18 -18 -18 -18 -19 -19 -19 -20 -19 -19 -19 -20 -21 -21 -21 -20 -18 -16 -16 -15 -15 -15 -15 -15 -15
-18 -18 -19 -20 -20 -21 -22 -22 -22 -21 -19 -18 -17 -18 -18 -19 -20 -21 -21 -20 -20 -20 -20 -20 -21 -21 -21 -21 -21 -21 -21 -21 -22 -22 -22 -22 -22 -22 -22 -23 -25 -26 -24 -21 -20 -19 -18 -18 -18 -18 -18 -19
-17 -18 -19 -19 -20 -20 -21 -23 -24 -23 -21 -20 -19 -20 -21 -23 -24 -25 -25 -25 -25 -25 -25 -25 -25 -25 -25 -26 -25 -25 -26 -25 -26 -26 -27 -27 -27 -27 -26 -25 -28 -29 -28 -26 -23 -20 -19 -19 -20 -21 -22 -23
-18 -18 -18 -18 -18 -18 -19 -21 -23 -24 -23 -22 -21 -22 -25 -28 -30 -30 -30 -30 -30 -30 -30 -30 -30 -30 -30 -30 -31 -30 -31 -31 -31 -31 -31 -31 -31 -31 -31 -30 -31 -32 -32 -31 -29 -28 -23 -20 -21 -21 -22 -23
-17 -17 -17 -17 -16 -16 -17 -19 -22 -24 -25 -24 -25 -27 -30 -33 -34 -35 -35 -35 -35 -34 -34 -34 -34 -34 -34 -34 -35 -34 -35 -35 -35 -35 -35 -35 -35 -34 -34 -34 -35 -35 -36 -36 -37 -36 -30 -27 -27 -24 -24 -23
-16 -16 -15 -15 -15 -15 -16 -18 -21 -24 -27 -29 -31 -33 -35 -36 -36 -37 -38 -37 -37 -37 -36 -36 -36 -36 -36 -36 -37 -37 -38 -38 -38 -38 -38 -38 -38 -38 -37 -36 -37 -36 -38 -40 -36 -33 -32 -35 -33 -27 -26 -25
-14 -14 -14 -14 -14 -14 -15 -17 -19 -23 -28 -33 -35 -37 -36 -37 -37 -36 -37 -37 -37 -37 -37 -37 -37 -37 -37 -37 -37 -38 -38 -38 -39 -40 -39 -39 -39 -39 -39 -38 -38 -38 -39 -39 -37 -35 -32 -27 -24 -24 -26 -28
-13 -13 -13 -14 -14 -14 -15 -16 -18 -21 -27 -34 -37 -37 -37 -37 -37 -37 -36 -37 -37 -37 -37 -37 -38 -38 -38 -38 -39 -38 -39 -39 -39 -40 -40 -40 -39 -39 -39 -38 -38 -39 -39 -39 -38 -38 -32 -24 -20 -21 -24 -26
-13 -13 -13 -13 -13 -14 -14 -15 -17 -21 -27 -35 -37 -37 -38 -37 -38 -38 -37 -38 -38 -38 -38 -38 -38 -38 -38 -38 -38 -39 -39 -39 -39 -39 -40 -39 -39 -39 -39 -38 -38 -38 -38 -39 -39 -38 -34 -29 -25 -25 -26 -26
Wind_Speed
4 3 3 2 1 1 5 7 7 8 8 7 7 8 9 9 9 9 8 7 8 9 9 10 10 11 12 13 14 15 15 14 14 14 14 15 15 14 13 11 11 12 13 12 12 11 11 11 11 11 11 11
2 4 2 3 5 6 7 8 8 8 7 8 9 10 11 12 12 11 10 9 10 11 11 11 11 11 12 13 13 14 15 14 14 14 14 14 15 15 15 13 11 12 12 13 13 12 11 12 12 12 12 12
4 4 4 4 5 6 6 6 7 8 9 10 11 12 13 13 13 13 12 12 13 13 14 14 14 13 13 13 13 14 15 14 14 14 14 14 15 15 16 15 14 13 13 13 13 13 12 12 13 13 13 13
3 3 4 3 2 4 5 6 8 8 10 11 11 12 12 13 14 14 14 15 16 16 16 17 17 16 16 15 15 16 16 16 15 15 16 16 16 16 16 16 16 15 15 14 14 14 14 13 13 14 14 14
1 1 2 2 2 4 5 7 8 9 10 11 11 11 12 13 14 14 15 16 17 17 18 18 19 19 19 19 18 18 19 19 18 17 16 17 17 17 17 17 16 16 16 16 16 15 14 14 14 14 14 14
1 2 2 2 3 5 6 8 8 10 11 12 12 12 13 13 14 15 15 16 17 18 18 19 19 20 20 21 21 21 21 21 20 19 17 17 18 18 18 18 17 16 16 16 17 16 15 14 14 14 14 14
1 1 2 3 4 6 8 9 10 11 12 13 13 13 14 14 14 14 15 15 16 17 17 18 19 19 21 21 22 23 23 23 22 22 20 19 19 19 19 18 18 17 16 16 16 16 16 15 15 14 14 14
4 5 6 7 8 9 10 11 12 12 13 13 13 13 13 13 13 13 14 15 15 16 16 17 18 19 20 21 22 23 23 23 23 23 23 22 22 21 21 20 19 19 18 17 17 17 16 16 15 15 15 14
7 7 9 11 11 12 13 13 14 14 14 14 14 14 14 13 13 13 14 14 15 16 17 19 19 20 21 22 22 22 22 23 23 24 24 24 24 24 24 22 21 21 20 19 19 18 18 17 16 16 15 15
6 7 8 10 11 13 14 14 14 14 15 15 16 15 15 14 14 14 15 16 17 18 19 20 21 21 22 22 22 23 23 23 23 24 24 25 25 26 26 25 24 23 23 23 22 21 20 20 19 18 17 16
6 7 8 9 10 13 13 14 14 14 15 15 16 16 16 16 16 16 16 17 17 18 19 20 22 22 23 23 23 24 24 24 23 24 24 25 25 26 27 27 26 26 25 25 25 24 23 22 22 21 20 19
8 8 9 10 11 13 14 14 14 15 15 16 17 17 17 17 17 16 16 17 17 18 19 20 22 22 24 24 25 25 25 26 25 25 25 25 26 26 27 27 27 27 27 26 27 26 26 25 24 23 22 22
8 9 10 11 12 13 13 14 15 15 15 16 17 17 17 17 17 17 17 18 18 20 20 22 23 24 25 26 26 26 26 27 27 27 26 26 26 26 27 27 28 28 28 28 28 28 27 27 26 25 24 23
9 10 11 12 12 13 14 15 15 16 16 16 16 16 16 17 18 19 20 21 22 23 24 25 25 26 27 27 28 28 27 28 28 28 28 28 28 28 28 28 28 29 29 29 29 28 28 28 27 26 26 25
10 11 12 13 13 14 14 15 16 16 17 17 17 17 18 19 21 22 23 24 25 26 27 27 28 28 28 29 29 29 29 29 29 29 29 30 30 30 30 30 29 29 30 30 29 30 29 29 28 27 27 26
11 12 13 14 14 15 15 15 16 17 17 18 19 20 22 23 24 25 26 27 28 28 29 29 30 30 30 30 30 30 30 30 30 30 30 30 31 31 31 31 31 31 31 31 30 31 30 30 29 29 28 28
13 14 14 15 16 16 16 16 17 18 19 21 22 23 25 26 28 29 29 30 30 30 31 31 31 32 32 32 32 32 32 32 32 32 32 31 31 31 32 33 32 32 32 31 31 31 31 31 30 30 29 28
13 14 15 16 17 18 18 19 20 21 23 24 25 27 28 29 30 31 32 33 33 33 34 34 34 34 34 34 34 34 34 34 34 34 35 34 34 34 34 34 34 34 34 33 33 32 31 31 31 30 30 30
13 14 16 17 18 19 21 22 23 25 26 27 28 29 30 31 32 33 34 35 36 36 36 37 37 36 36 35 35 35 35 35 35 36 36 36 37 37 37 36 36 36 36 36 35 34 33 33 32 32 31 31
13 15 16 17 19 20 22 24 25 26 28 29 30 31 31 32 32 33 34 35 36 37 37 38 38 38 37 37 36 36 35 35 36 36 37 37 37 38 39 39 38 38 38 39 38 37 36 35 34 34 34 33
15 17 18 19 20 21 23 24 25 27 28 29 30 31 32 33 34 34 35 35 36 37 37 37 38 38 38 38 38 37 36 36 36 36 37 37 37 37 39 39 39 40 40 40 40 40 39 37 37 36 36 35
18 19 20 21 22 23 24 24 25 26 26 28 29 30 31 33 33 34 35 36 36 37 37 37 37 37 38 38 38 37 36 35 35 35 36 37 37 36 37 38 39 40 40 41 42 42 41 40 39 39 38 37
19 20 20 22 22 23 24 25 26 26 27 28 29 29 30 31 31 32 34 35 36 36 36 35 35 36 36 36 36 36 35 34 34 34 34 35 36 35 35 35 36 38 39 41 42 42 42 42 41 40 38 37
19 20 21 21 22 23 24 25 27 27 28 29 30 30 30 31 30 30 31 32 33 33 33 33 33 34 33 33 33 33 33 32 32 33 33 34 34 35 34 34 34 35 37 40 41 41 41 40 40 39 37 36
20 21 22 22 23 23 24 25 26 27 27 28 29 29 30 30 29 29 29 29 29 29 29 30 30 31 31 31 30 30 29 29 30 30 31 32 32 33 34 34 32 32 34 38 40 41 42 40 38 36 34 33
21 22 23 23 24 24 25 26 26 26 26 27 28 28 28 28 27 26 26 27 27 27 27 28 28 29 29 29 28 28 27 27 27 28 29 30 30 30 31 31 30 30 31 33 35 37 41 42 39 35 32 30
21 22 23 24 24 25 27 27 27 27 26 27 27 26 26 25 24 24 24 25 25 26 26 27 28 28 28 28 28 28 27 26 26 27 27 27 28 29 30 29 27 26 25 27 30 29 31 35 37 38 33 27
22 23 23 24 24 26 27 28 28 28 27 26 26 25 24 23 23 23 23 24 24 25 26 27 28 28 28 28 27 27 27 27 27 27 26 25 26 28 28 28 27 24 21 21 23 22 22 24 26 28 30 31
22 23 24 24 25 25 27 28 29 29 29 28 27 26 25 24 24 23 23 23 23 24 25 27 27 28 28 28 27 27 26 27 27 27 26 25 25 25 25 27 27 24 20 18 17 15 17 17 15 18 27 35
23 24 25 25 25 26 28 29 30 30 30 30 29 28 27 26 26 25 24 23 23 24 25 25 26 27 27 27 27 26 26 26 26 26 25 24 25 25 23 24 26 25 21 18 15 13 13 11 13 21 27 28
24 25 26 25 25 26 27 29 30 30 30 29 29 28 28 28 27 27 26 24 24 24 25 25 26 27 26 26 25 25 26 25 25 26 25 24 24 24 23 23 24 24 23 20 16 14 16 16 16 20 22 20
Wind_Direction
149 122 114 149 227 41 30 26 14 8 6 352 347 342 341 348 354 359 0 353 342 336 333 335 339 344 344 341 337 332 332 331 329 328 324 321 319 316 314 311 306 304 303 300 296 292 289 282 277 272 268 262
18 15 19 298 325 349 0 2 356 351 339 329 335 336 338 341 342 344 344 339 332 328 324 320 322 331 337 339 338 331 327 327 326 324 320 317 315 312 310 310 306 301 298 296 296 293 290 286 282 280 277 271
333 334 328 319 324 333 329 328 326 324 323 326 333 334 334 333 332 332 328 325 323 321 319 320 321 325 330 332 332 326 322 323 322 319 316 313 311 309 308 309 308 302 297 293 291 290 289 286 283 282 281 279
289 289 311 334 319 308 306 313 318 319 320 322 326 326 326 324 322 323 321 322 323 323 323 324 325 326 328 327 327 324 321 321 319 316 313 311 308 306 306 306 306 304 300 294 290 287 286 284 281 279 278 278
269 341 4 18 337 320 319 323 323 319 319 318 320 320 319 319 319 321 323 325 326 325 325 325 326 326 327 326 325 323 321 320 318 315 310 307 305 303 302 302 302 300 299 296 293 288 285 282 278 276 275 274
34 30 23 4 324 320 319 320 322 322 322 320 321 321 323 324 324 325 324 325 324 324 324 324 324 324 323 322 322 321 320 319 316 314 309 304 300 299 298 297 296 295 294 293 293 291 288 283 278 275 272 271
345 307 288 296 298 307 312 316 319 320 321 321 323 325 327 327 326 325 322 321 320 321 320 319 319 318 318 317 318 319 318 318 316 313 310 305 301 298 296 295 294 291 290 289 290 291 289 287 282 279 275 271
288 287 294 300 301 304 308 311 312 313 314 315 319 321 324 324 321 319 317 316 314 313 312 311 311 311 312 313 314 315 316 316 315 313 311 308 305 302 299 297 296 292 290 288 288 289 288 287 285 283 281 277
283 286 293 298 300 303 302 303 303 304 305 306 310 313 316 316 313 310 307 306 304 304 304 304 305 306 308 310 312 313 314 314 313 313 311 310 308 306 304 301 300 297 294 291 288 289 288 286 284 283 281 278
268 271 278 285 290 294 293 293 292 294 296 298 302 304 308 308 305 303 300 299 298 299 300 301 303 305 308 310 312 313 313 313 312 311 309 308 307 306 305 303 302 300 298 295 293 290 289 288 286 284 282 277
254 258 267 274 279 282 281 281 282 285 289 292 295 299 301 302 302 301 298 297 296 298 299 301 303 306 308 310 311 312 312 311 311 309 307 305 303 302 301 301 300 299 298 296 295 293 291 290 289 288 286 281
257 265 274 278 280 281 279 279 281 284 287 291 294 298 300 301 301 300 299 299 298 300 301 303 304 306 307 308 309 310 310 310 309 307 305 303 301 300 298 298 297 296 296 294 294 293 291 290 290 289 288 286
269 276 281 283 285 285 285 287 289 290 292 295 297 300 300 300 300 300 301 302 302 303 304 305 305 306 306 307 307 307 308 307 307 306 304 302 300 299 297 296 295 295 294 294 293 292 291 290 290 288 287 285
277 282 285 287 289 291 294 295 297 299 300 301 301 301 301 301 303 305 307 307 308 308 307 307 306 306 306 307 307 306 306 305 304 304 303 301 300 298 297 295 294 294 293 292 292 291 289 289 288 287 286 284
282 286 288 290 293 295 297 298 300 302 303 305 305 305 305 305 306 307 308 308 308 308 307 307 306 306 306 305 306 305 304 303 302 301 301 300 299 298 297 296 295 293 293 292 292 291 289 288 287 286 284 283
287 291 293 294 296 296 298 299 301 302 302 304 304 305 306 306 306 306 306 305 305 304 304 303 303 303 302 302 302 302 301 301 300 299 298 297 296 296 295 295 294 293 293 292 291 291 290 289 287 286 284 283
292 294 296 297 298 298 299 300 301 301 301 301 302 302 303 303 303 303 303 302 302 302 301 300 300 299 299 299 299 299 298 298 297 296 295 294 292 292 291 291 291 290 289 288 288 288 287 287 286 286 284 283
296 298 299 299 301 301 302 301 301 301 300 300 300 300 300 300 300 300 300 300 300 300 300 299 298 298 297 297 297 296 296 295 295 294 293 293 291 290 289 289 288 288 287 286 285 284 284 284 283 284 283 282
300 299 299 298 298 298 298 298 298 298 298 297 297 297 297 297 297 297 297 298 298 298 298 297 297 297 297 296 296 295 295 294 293 293 292 292 291 290 289 288 288 288 287 286 285 284 283 282 281 281 281 281
295 293 293 292 291 291 291 291 292 292 293 293 294 295 295 295 295 296 296 296 296 296 297 297 297 297 297 296 296 295 295 294 293 292 291 291 291 290 289 289 288 288 287 286 285 284 283 282 282 281 280 280
291 292 294 295 296 297 296 295 294 293 293 293 293 294 294 295 296 296 296 297 297 297 297 298 298 299 298 298 297 297 296 295 294 293 291 290 291 291 290 290 289 288 287 286 285 284 284 283 282 281 281 281
297 300 303 304 306 305 304 302 300 298 296 294 294 293 294 295 296 296 297 297 297 297 297 298 298 298 298 298 298 298 297 296 295 294 292 291 290 291 291 291 291 290 289 288 286 284 284 283 282 281 281 281
304 306 308 308 308 308 307 305 303 302 301 300 299 298 298 298 298 299 298 297 297 297 297 297 297 296 296 295 296 296 296 296 295 293 291 290 289 289 289 291 292 292 291 289 287 287 286 285 284 283 283 282
309 308 308 307 308 310 310 310 309 307 306 306 306 307 307 306 306 305 302 300 299 299 298 298 297 296 296 296 296 296 296 296 295 294 293 292 291 290 289 289 292 293 292 289 287 286 285 285 285 285 285 285
312 311 312 312 313 316 319 319 317 314 311 309 310 311 311 311 311 309 307 305 303 302 301 299 298 298 298 298 298 298 299 298 297 296 295 295 295 295 293 292 294 295 295 293 291 288 284 282 284 285 285 284
317 319 321 322 323 325 327 327 323 320 316 314 313 314 312 311 312 310 308 307 306 306 304 302 301 301 301 301 302 302 302 300 299 297 297 297 296 296 296 296 298 300 301 301 300 299 292 289 289 286 284 284
321 326 328 329 330 331 332 331 328 324 321 318 316 313 311 310 309 308 307 306 306 305 303 302 302 303 303 303 305 305 304 302 300 299 299 300 300 298 297 297 299 301 306 305 306 309 303 300 301 295 290 286
322 327 329 330 331 332 332 331 329 325 322 319 317 313 310 308 307 306 306 306 305 303 301 301 302 302 302 303 305 306 306 304 303 302 302 303 303 301 301 300 299 300 305 307 308 312 308 307 307 299 297 294
320 323 326 328 329 328 327 327 326 324 322 320 318 315 312 311 309 307 307 305 302 300 300 300 300 300 301 303 305 305 304 303 304 304 305 306 304 303 305 303 301 301 303 302 303 309 310 311 307 296 300 301
316 318 321 324 324 324 323 324 325 324 322 320 318 316 314 313 311 309 309 306 303 301 299 298 297 298 299 301 303 304 303 302 303 302 303 305 304 304 305 302 301 301 301 297 293 293 290 285 286 292 302 307
310 312 315 318 319 320 321 322 324 323 321 319 317 315 314 312 311 309 309 306 303 301 299 298 297 297 298 299 301 302 301 301 301 301 302 303 302 303 303 302 302 301 300 296 290 283 277 269 267 278 290 301
Height
1577 1577 1578 1577 1577 1577 1576 1576 1575 1574 1574 1573 1572 1571 1571 1570 1570 1569 1568 1568 1567 1566 1566 1565 1564 1564 1563 1562 1561 1560 1560 1559 1558 1557 1557 1556 1555 1554 1554 1553 1552 1551 1550 1549 1548 1547 1546 1546 1545 1544 1544 1544
1578 1579 1578 1578 1578 1577 1576 1576 1575 1574 1573 1573 1572 1572 1571 1571 1570 1569 1569 1568 1567 1566 1565 1564 1564 1563 1563 1562 1561 1560 1560 1559 1558 1557 1556 1555 1555 1554 1553 1553 1552 1551 1550 1549 1548 1547 1546 1545 1544 1543 1543 1543
1579 1579 1579 1578 1578 1577 1576 1575 1575 1574 1573 1573 1573 1573 1572 1571 1570 1569 1568 1567 1567 1566 1565 1564 1563 1563 1562 1562 1561 1560 1559 1559 1558 1557 1556 1555 1554 1553 1552 1552 1551 1551 1550 1549 1548 1547 1546 1545 1544 1543 1542 1542
1578 1578 1578 1577 1576 1575 1575 1575 1575 1574 1574 1574 1573 1573 1572 1571 1570 1569 1568 1567 1566 1565 1564 1564 1563 1562 1562 1561 1560 1560 1559 1558 1558 1557 1556 1555 1554 1553 1552 1551 1550 1550 1549 1548 1547 1546 1545 1544 1544 1543 1542 1541
1578 1578 1577 1576 1576 1575 1575 1575 1575 1575 1574 1574 1573 1573 1572 1571 1570 1569 1568 1567 1566 1565 1564 1563 1563 1562 1561 1560 1560 1559 1559 1558 1557 1556 1555 1554 1553 1552 1551 1550 1549 1548 1548 1547 1546 1546 1545 1544 1543 1542 1542 1541
1578 1577 1577 1576 1576 1575 1575 1575 1574 1574 1574 1573 1573 1572 1572 1571 1570 1569 1568 1567 1566 1565 1564 1563 1562 1561 1560 1560 1559 1558 1558 1557 1556 1555 1555 1553 1552 1551 1550 1549 1548 1548 1547 1546 1545 1544 1544 1543 1542 1541 1541 1540
1577 1577 1577 1576 1576 1575 1575 1575 1575 1574 1573 1573 1572 1572 1571 1570 1569 1568 1567 1566 1565 1564 1563 1562 1561 1561 1560 1559 1558 1558 1557 1556 1555 1554 1553 1552 1551 1550 1549 1548 1547 1546 1546 1545 1544 1543 1543 1542 1541 1540 1539 1539
1578 1577 1577 1577 1577 1576 1576 1576 1575 1575 1574 1573 1572 1571 1571 1570 1569 1568 1567 1566 1564 1563 1562 1562 1561 1560 1559 1558 1558 1557 1556 1555 1554 1553 1552 1551 1550 1549 1548 1547 1546 1545 1544 1544 1543 1542 1542 1541 1540 1539 1538 1537
1578 1578 1578 1577 1577 1577 1576 1576 1575 1575 1574 1573 1572 1572 1571 1570 1569 1568 1567 1565 1564 1563 1562 1561 1560 1559 1558 1557 1556 1556 1555 1554 1553 1552 1551 1550 1549 1548 1547 1546 1545 1543 1543 1542 1541 1541 1540 1539 1539 1538 1537 1535
1577 1577 1577 1576 1576 1576 1575 1575 1574 1574 1573 1572 1572 1571 1570 1569 1568 1567 1566 1565 1564 1563 1561 1560 1559 1558 1557 1556 1555 1554 1553 1553 1552 1551 1549 1548 1547 1546 1545 1544 1544 1542 1541 1540 1539 1539 1538 1537 1537 1536 1535 1534
1577 1576 1575 1575 1574 1574 1574 1573 1573 1572 1572 1571 1571 1570 1569 1568 1567 1567 1565 1564 1563 1562 1560 1559 1558 1557 1556 1555 1553 1552 1551 1550 1550 1549 1547 1546 1545 1544 1544 1543 1542 1541 1540 1539 1537 1537 1536 1535 1534 1534 1533 1532
1576 1576 1575 1574 1574 1573 1573 1572 1572 1572 1571 1570 1570 1569 1568 1567 1566 1565 1564 1563 1562 1561 1560 1558 1557 1556 1555 1553 1552 1551 1549 1548 1547 1546 1545 1544 1543 1542 1541 1540 1539 1538 1537 1536 1535 1534 1533 1532 1532 1531 1530 1530
1576 1575 1575 1574 1573 1573 1572 1572 1571 1571 1571 1570 1569 1568 1567 1566 1566 1565 1563 1562 1561 1560 1559 1557 1556 1555 1553 1552 1551 1550 1548 1547 1545 1544 1543 1541 1540 1539 1538 1537 1536 1535 1534 1533 1532 1531 1530 1529 1528 1528 1527 1526
1575 1574 1574 1573 1573 1572 1572 1571 1571 1570 1570 1569 1568 1567 1567 1566 1564 1563 1562 1561 1560 1559 1557 1556 1555 1553 1552 1550 1549 1548 1546 1545 1543 1542 1540 1539 1538 1536 1535 1534 1533 1532 1531 1530 1529 1528 1527 1526 1525 1524 1524 1523
1574 1574 1573 1573 1572 1572 1571 1570 1570 1569 1568 1567 1567 1566 1565 1564 1563 1561 1560 1559 1558 1557 1555 1554 1552 1551 1550 1549 1547 1546 1544 1543 1541 1540 1538 1536 1535 1533 1532 1531 1530 1529 1528 1527 1526 1525 1524 1523 1523 1522 1521 1520
1574 1573 1572 1572 1571 1571 1570 1569 1569 1568 1567 1566 1565 1564 1563 1561 1560 1559 1558 1557 1555 1554 1553 1551 1550 1549 1547 1546 1545 1543 1542 1540 1539 1537 1536 1534 1533 1531 1529 1528 1527 1526 1525 1524 1523 1522 1521 1521 1520 1519 1519 1518
1573 1572 1571 1571 1570 1569 1569 1568 1567 1566 1565 1564 1563 1562 1561 1559 1558 1556 1555 1554 1553 1551 1550 1549 1547 1546 1545 1543 1542 1541 1539 1537 1536 1534 1533 1532 1530 1529 1527 1525 1524 1523 1522 1521 1521 1520 1519 1518 1517 1517 1516 1515
1572 1571 1570 1570 1569 1568 1567 1566 1565 1564 1563 1562 1561 1559 1558 1557 1555 1554 1552 1551 1550 1548 1547 1545 1544 1543 1541 1540 1539 1538 1536 1534 1533 1531 1529 1528 1527 1526 1524 1523 1521 1520 1519 1518 1518 1517 1516 1515 1514 1514 1513 1513
1571 1570 1569 1568 1567 1566 1565 1564 1563 1562 1560 1559 1557 1556 1555 1554 1553 1551 1550 1548 1547 1545 1544 1542 1540 1539 1538 1537 1535 1534 1533 1531 1529 1527 1526 1524 1522 1521 1520 1519 1518 1517 1515 1514 1514 1513 1513 1512 1511 1511 1510 1510
1569 1569 1568 1567 1566 1564 1563 1562 1561 1560 1558 1557 1555 1553 1552 1551 1550 1548 1547 1545 1544 1542 1541 1539 1537 1536 1534 1533 1532 1530 1529 1527 1525 1524 1522 1521 1518 1516 1515 1514 1513 1512 1511 1510 1509 1509 1509 1508 1508 1507 1506 1506
1567 1567 1565 1564 1563 1562 1561 1560 1559 1558 1556 1555 1553 1551 1550 1548 1547 1545 1544 1542 1541 1539 1538 1536 1534 1533 1531 1530 1528 1527 1526 1524 1522 1520 1518 1517 1516 1513 1511 1510 1508 1507 1506 1505 1504 1504 1504 1503 1503 1502 1502 1502
1565 1565 1563 1562 1561 1559 1558 1557 1556 1554 1553 1552 1550 1549 1547 1546 1544 1543 1541 1539 1538 1536 1535 1534 1532 1530 1529 1527 1525 1524 1522 1521 1519 1518 1515 1513 1512 1511 1508 1506 1504 1502 1501 1500 1499 1498 1498 1498 1498 1498 1498 1497
1564 1563 1561 1560 1559 1557 1556 1554 1553 1551 1550 1548 1547 1546 1544 1543 1541 1540 1538 1536 1535 1533 1532 1530 1529 1527 1525 1524 1522 1521 1519 1518 1516 1515 1513 1511 1509 1508 1507 1504 1502 1500 1497 1496 1494 1494 1493 1493 1493 1493 1493 1493
1562 1561 1560 1558 1557 1555 1554 1552 1550 1548 1546 1544 1542 1541 1540 1538 1537 1536 1534 1533 1531 1530 1528 1527 1525 1524 1522 1521 1519 1518 1516 1515 1513 1511 1509 1508 1506 1505 1504 1503 1501 1498 1495 1493 1491 1490 1490 1489 1489 1489 1489 1489
1560 1558 1557 1556 1554 1552 1551 1549 1547 1546 1544 1542 1540 1538 1537 1535 1534 1532 1530 1529 1527 1526 1525 1524 1522 1521 1519 1518 1516 1515 1514 1512 1510 1509 1506 1505 1503 1502 1500 1500 1499 1497 1494 1490 1487 1485 1485 1486 1486 1486 1486 1485
1557 1555 1554 1552 1551 1549 1548 1547 1545 1543 1542 1540 1538 1536 1535 1533 1532 1530 1528 1526 1525 1523 1522 1520 1519 1518 1516 1515 1514 1513 1511 1510 1508 1506 1505 1503 1501 1500 1498 1497 1496 1495 1492 1489 1486 1483 1480 1479 1480 1481 1482 1482
1554 1552 1551 1549 1548 1546 1545 1544 1542 1540 1539 1537 1536 1534 1533 1531 1530 1528 1526 1524 1523 1521 1519 1518 1516 1515 1514 1513 1511 1510 1509 1508 1506 1504 1503 1501 1499 1497 1496 1495 1495 1494 1492 1489 1487 1485 1481 1478 1476 1474 1475 1477
1551 1549 1548 1547 1545 1544 1542 1541 1540 1538 1537 1535 1533 1532 1530 1529 1528 1526 1524 1523 1521 1519 1517 1515 1514 1513 1512 1511 1509 1508 1506 1505 1503 1502 1501 1499 1497 1495 1494 1493 1492 1492 1492 1490 1487 1485 1483 1481 1478 1473 1471 1470
1549 1547 1546 1544 1543 1541 1540 1539 1537 1536 1534 1532 1531 1529 1527 1526 1525 1524 1522 1521 1519 1517 1516 1514 1512 1511 1509 1509 1508 1506 1505 1503 1501 1500 1499 1497 1496 1494 1493 1490 1489 1490 1491 1490 1489 1487 1485 1483 1480 1476 1473 1469
1546 1544 1543 1541 1540 1539 1537 1536 1534 1532 1531 1529 1528 1526 1524 1523 1521 1521 1520 1518 1517 1515 1513 1512 1510 1509 1508 1506 1506 1504 1503 1501 1499 1498 1497 1496 1494 1493 1492 1489 1487 1487 1488 1488 1488 1487 1486 1485 1483 1478 1476 1473
1543 1542 1540 1539 1537 1536 1534 1533 1531 1530 1528 1527 1525 1523 1522 1520 1519 1518 1517 1516 1514 1512 1511 1509 1507 1506 1505 1504 1503 1502 1500 1499 1497 1496 1495 1494 1492 1491 1490 1488 1486 1485 1485 1485 1486 1485 1484 1483 1483 1480 1478 1477